Hourly Weather Kivsharivka

Today, 30 July, Friday

Time Temperature Precipitation Wind Pressure Humidity
00:00 +21°C° 0.2 mm 3 mps 747 mmHg 82%
01:00 +21°C° 0 mm 2 mps 747 mmHg 86%
02:00 +20°C° 0 mm 2 mps 747 mmHg 89%
03:00 +20°C° 0 mm 2 mps 747 mmHg 92%
04:00 +20°C° 0 mm 2 mps 747 mmHg 92%
05:00 +20°C° 0 mm 2 mps 747 mmHg 91%
06:00 +20°C° 0 mm 2 mps 747 mmHg 91%
07:00 +23°C° 0 mm 2 mps 747 mmHg 83%
08:00 +25°C° 0 mm 3 mps 747 mmHg 75%
09:00 +27°C° 0 mm 3 mps 747 mmHg 67%
10:00 +29°C° 0 mm 4 mps 747 mmHg 60%
11:00 +32°C° 0 mm 4 mps 746 mmHg 53%
12:00 +34°C° 0 mm 4 mps 746 mmHg 46%
13:00 +33°C° 0.1 mm 4 mps 746 mmHg 46%
14:00 +33°C° 0.1 mm 4 mps 746 mmHg 47%
15:00 +33°C° 0.1 mm 4 mps 745 mmHg 48%
16:00 +30°C° 1.7 mm 4 mps 745 mmHg 56%
17:00 +28°C° 1.7 mm 4 mps 745 mmHg 64%
18:00 +26°C° 1.7 mm 4 mps 744 mmHg 72%
19:00 +25°C° 2 mm 4 mps 745 mmHg 77%
20:00 +22°C° 2 mm 4 mps 746 mmHg 82%
21:00 +21°C° 2 mm 4 mps 747 mmHg 88%
22:00 +21°C° 0.3 mm 3 mps 747 mmHg 86%
23:00 +21°C° 0.3 mm 2 mps 747 mmHg 85%

Tomorrow, 31 July, Saturday

Time Temperature Precipitation Wind Pressure Humidity
00:00 +21°C° 0.3 mm 2 mps 747 mmHg 84%
01:00 +22°C° 0.1 mm 1 mps 747 mmHg 83%
02:00 +22°C° 0.1 mm 1 mps 747 mmHg 81%
03:00 +22°C° 0.1 mm 1 mps 747 mmHg 80%
04:00 +22°C° 0 mm 1 mps 747 mmHg 80%
05:00 +22°C° 0 mm 1 mps 748 mmHg 80%
06:00 +22°C° 0 mm 1 mps 748 mmHg 81%
07:00 +24°C° 0 mm 1 mps 748 mmHg 72%
08:00 +25°C° 0 mm 1 mps 748 mmHg 64%
09:00 +27°C° 0 mm 2 mps 749 mmHg 56%
10:00 +29°C° 0 mm 2 mps 749 mmHg 50%
11:00 +30°C° 0 mm 2 mps 749 mmHg 43%
12:00 +31°C° 0 mm 2 mps 749 mmHg 36%
13:00 +32°C° 0 mm 2 mps 749 mmHg 35%
14:00 +32°C° 0 mm 2 mps 748 mmHg 33%
15:00 +34°C° 0 mm 2 mps 748 mmHg 32%
16:00 +34°C° 0 mm 2 mps 748 mmHg 33%
17:00 +32°C° 0 mm 2 mps 748 mmHg 35%
18:00 +32°C° 0 mm 2 mps 748 mmHg 36%
19:00 +30°C° 0 mm 2 mps 748 mmHg 42%
20:00 +28°C° 0 mm 2 mps 749 mmHg 47%
21:00 +26°C° 0 mm 2 mps 749 mmHg 53%
22:00 +25°C° 0 mm 2 mps 749 mmHg 54%
23:00 +25°C° 0 mm 2 mps 749 mmHg 55%

Day after tomorrow, 1 August, Sunday

Time Temperature Precipitation Wind Pressure Humidity
00:00 +24°C° 0 mm 2 mps 749 mmHg 55%
01:00 +24°C° 0 mm 1 mps 749 mmHg 56%
02:00 +23°C° 0 mm 1 mps 749 mmHg 57%
03:00 +21°C° 0 mm 0 mps 750 mmHg 58%
04:00 +23°C° 0 mm 1 mps 750 mmHg 60%
05:00 +23°C° 0 mm 1 mps 750 mmHg 61%
06:00 +23°C° 0 mm 2 mps 750 mmHg 62%
07:00 +25°C° 0 mm 2 mps 750 mmHg 56%
08:00 +27°C° 0 mm 2 mps 750 mmHg 50%
09:00 +30°C° 0 mm 2 mps 750 mmHg 44%
10:00 +31°C° 0 mm 2 mps 750 mmHg 41%
11:00 +32°C° 0 mm 2 mps 750 mmHg 37%
12:00 +34°C° 0 mm 2 mps 750 mmHg 34%
13:00 +35°C° 0 mm 2 mps 750 mmHg 33%
14:00 +35°C° 0 mm 2 mps 749 mmHg 33%
15:00 +36°C° 0 mm 2 mps 749 mmHg 32%
16:00 +36°C° 0 mm 2 mps 749 mmHg 32%
17:00 +35°C° 0 mm 2 mps 749 mmHg 33%
18:00 +34°C° 0 mm 1 mps 749 mmHg 33%
19:00 +32°C° 0 mm 1 mps 749 mmHg 38%
20:00 +30°C° 0 mm 1 mps 749 mmHg 42%
21:00 +28°C° 0 mm 1 mps 749 mmHg 47%
22:00 +27°C° 0 mm 1 mps 749 mmHg 48%
23:00 +27°C° 0 mm 1 mps 749 mmHg 50%

2 August, Monday

Time Temperature Precipitation Wind Pressure Humidity
00:00 +26°C° 0 mm 1 mps 749 mmHg 52%
01:00 +26°C° 0 mm 1 mps 749 mmHg 54%
02:00 +25°C° 0 mm 1 mps 749 mmHg 56%
03:00 +25°C° 0 mm 1 mps 749 mmHg 58%
04:00 +23°C° 0 mm 0 mps 749 mmHg 59%
05:00 +23°C° 0 mm 0 mps 749 mmHg 59%
06:00 +23°C° 0 mm 0 mps 749 mmHg 60%
07:00 +25°C° 0 mm 0 mps 749 mmHg 54%
08:00 +29°C° 0 mm 1 mps 749 mmHg 48%
09:00 +32°C° 0 mm 1 mps 749 mmHg 42%
10:00 +33°C° 0 mm 1 mps 748 mmHg 38%
11:00 +35°C° 0 mm 2 mps 748 mmHg 35%
12:00 +37°C° 0 mm 3 mps 748 mmHg 31%
13:00 +37°C° 0 mm 3 mps 748 mmHg 29%
14:00 +38°C° 0 mm 4 mps 748 mmHg 27%
15:00 +39°C° 0 mm 5 mps 747 mmHg 24%
16:00 +39°C° 0 mm 5 mps 747 mmHg 26%
17:00 +37°C° 0 mm 4 mps 747 mmHg 28%
18:00 +36°C° 0 mm 4 mps 747 mmHg 30%
19:00 +34°C° 0 mm 4 mps 747 mmHg 33%
20:00 +32°C° 0 mm 4 mps 747 mmHg 37%
21:00 +29°C° 0 mm 3 mps 747 mmHg 41%
22:00 +27°C° 0 mm 3 mps 747 mmHg 51%
23:00 +26°C° 0 mm 2 mps 747 mmHg 62%

3 August, Tuesday

Time Temperature Precipitation Wind Pressure Humidity
00:00 +25°C° 0 mm 2 mps 747 mmHg 72%
01:00 +24°C° 0.1 mm 2 mps 747 mmHg 74%
02:00 +24°C° 0.1 mm 3 mps 748 mmHg 76%
03:00 +22°C° 0.1 mm 3 mps 748 mmHg 79%
04:00 +22°C° 0.3 mm 3 mps 748 mmHg 81%
05:00 +23°C° 0.3 mm 2 mps 748 mmHg 83%
06:00 +22°C° 0.3 mm 1 mps 748 mmHg 85%
07:00 +23°C° 0.2 mm 2 mps 749 mmHg 81%
08:00 +24°C° 0.2 mm 2 mps 749 mmHg 78%
09:00 +25°C° 0.2 mm 2 mps 749 mmHg 74%
10:00 +27°C° 0 mm 2 mps 749 mmHg 65%
11:00 +29°C° 0 mm 3 mps 749 mmHg 56%
12:00 +31°C° 0 mm 3 mps 749 mmHg 47%
13:00 +31°C° 0.1 mm 3 mps 749 mmHg 46%
14:00 +31°C° 0.1 mm 3 mps 749 mmHg 46%
15:00 +32°C° 0.1 mm 4 mps 748 mmHg 46%
16:00 +29°C° 1 mm 4 mps 749 mmHg 57%
17:00 +26°C° 1 mm 4 mps 749 mmHg 67%
18:00 +23°C° 1 mm 4 mps 749 mmHg 78%
19:00 +22°C° 0.4 mm 3 mps 750 mmHg 81%
20:00 +21°C° 0.4 mm 2 mps 750 mmHg 84%
21:00 +21°C° 0.4 mm 1 mps 750 mmHg 86%
22:00 +21°C° 0.1 mm 1 mps 750 mmHg 87%
23:00 +21°C° 0.1 mm 1 mps 751 mmHg 87%

4 August, Wednesday

Time Temperature Precipitation Wind Pressure Humidity
00:00 +19°C° 0.1 mm 2 mps 751 mmHg 87%
01:00 +19°C° 0 mm 2 mps 751 mmHg 86%
02:00 +18°C° 0 mm 2 mps 751 mmHg 84%
03:00 +18°C° 0 mm 2 mps 751 mmHg 82%
04:00 +18°C° 0 mm 2 mps 752 mmHg 80%
05:00 +18°C° 0 mm 2 mps 752 mmHg 78%
06:00 +18°C° 0 mm 2 mps 752 mmHg 76%
07:00 +20°C° 0 mm 2 mps 753 mmHg 68%
08:00 +23°C° 0 mm 2 mps 753 mmHg 60%
09:00 +25°C° 0 mm 2 mps 753 mmHg 52%
10:00 +27°C° 0 mm 2 mps 753 mmHg 47%
11:00 +28°C° 0 mm 2 mps 753 mmHg 42%
12:00 +29°C° 0 mm 2 mps 753 mmHg 36%
13:00 +30°C° 0 mm 2 mps 753 mmHg 34%
14:00 +31°C° 0 mm 2 mps 753 mmHg 31%
15:00 +31°C° 0 mm 2 mps 752 mmHg 29%
16:00 +31°C° 0 mm 2 mps 752 mmHg 29%
17:00 +31°C° 0 mm 2 mps 752 mmHg 30%
18:00 +31°C° 0 mm 2 mps 752 mmHg 30%
19:00 +29°C° 0 mm 2 mps 752 mmHg 35%
20:00 +27°C° 0 mm 2 mps 752 mmHg 39%
21:00 +25°C° 0 mm 2 mps 752 mmHg 43%
22:00 +24°C° 0 mm 2 mps 753 mmHg 46%
23:00 +23°C° 0 mm 2 mps 753 mmHg 49%
Show more